TimeCST,TemperatureF,Dew PointF,Humidity,Sea Level PressureIn,VisibilityMPH,Wind Direction,Wind SpeedMPH,Gust SpeedMPH,PrecipitationIn,Events,Conditions,WindDirDegrees,DateUTC
12:04 AM,64.4,64.4,100,29.95,0.2,Calm,Calm,-,N/A,Fog,Fog,0,2013-11-18 06:04:00
12:37 AM,62.6,62.6,100,29.95,0.2,Calm,Calm,-,N/A,Fog,Fog,0,2013-11-18 06:37:00
12:53 AM,64.0,64.0,100,29.94,0.2,Calm,Calm,-,0.01,Fog,Fog,0,2013-11-18 06:53:00
1:53 AM,64.0,64.0,100,29.96,0.2,Calm,Calm,-,N/A,Fog,Fog,0,2013-11-18 07:53:00
2:16 AM,66.2,66.2,100,29.98,0.5,North,5.8,-,N/A,Fog,Fog,350,2013-11-18 08:16:00
2:49 AM,68.0,68.0,100,29.98,1.5,ENE,3.5,-,N/A,,Overcast,70,2013-11-18 08:49:00
2:53 AM,68.0,68.0,100,29.97,2.0,NNE,4.6,-,N/A,,Overcast,30,2013-11-18 08:53:00
3:06 AM,68.0,68.0,100,29.98,1.8,Calm,Calm,-,N/A,,Overcast,0,2013-11-18 09:06:00
3:17 AM,68.0,66.2,94,29.99,1.0,NNE,4.6,-,N/A,,Overcast,30,2013-11-18 09:17:00
3:28 AM,68.0,66.2,94,29.99,3.0,NE,6.9,-,N/A,,Mostly Cloudy,40,2013-11-18 09:28:00
3:36 AM,66.2,66.2,100,29.99,7.0,NE,6.9,-,N/A,,Scattered Clouds,40,2013-11-18 09:36:00
3:53 AM,64.9,64.0,97,29.99,10.0,NE,8.1,-,N/A,,Clear,40,2013-11-18 09:53:00
4:53 AM,64.9,57.9,78,30.00,10.0,NE,10.4,17.3,N/A,,Clear,40,2013-11-18 10:53:00
5:53 AM,64.0,54.0,70,30.03,10.0,NE,6.9,16.1,N/A,,Clear,40,2013-11-18 11:53:00
6:53 AM,64.0,50.0,60,30.05,10.0,NE,9.2,-,N/A,,Clear,40,2013-11-18 12:53:00
7:53 AM,64.9,48.9,56,30.07,10.0,NE,4.6,-,N/A,,Clear,50,2013-11-18 13:53:00
8:53 AM,68.0,46.0,45,30.09,10.0,ENE,11.5,-,N/A,,Clear,70,2013-11-18 14:53:00
9:53 AM,72.0,42.1,34,30.11,10.0,East,15.0,-,N/A,,Clear,80,2013-11-18 15:53:00
10:53 AM,75.0,41.0,29,30.11,10.0,East,12.7,-,N/A,,Clear,80,2013-11-18 16:53:00
11:53 AM,77.0,41.0,28,30.09,10.0,East,11.5,18.4,N/A,,Clear,80,2013-11-18 17:53:00
12:53 PM,78.1,41.0,27,30.07,10.0,NE,8.1,-,N/A,,Clear,40,2013-11-18 18:53:00
1:53 PM,78.1,37.9,24,30.06,10.0,East,11.5,17.3,N/A,,Clear,80,2013-11-18 19:53:00
2:53 PM,78.1,37.9,24,30.06,10.0,ENE,9.2,-,N/A,,Clear,60,2013-11-18 20:53:00
3:53 PM,75.9,37.9,25,30.07,10.0,NNE,10.4,-,N/A,,Clear,30,2013-11-18 21:53:00
4:53 PM,73.0,39.0,29,30.09,10.0,NE,4.6,-,N/A,,Clear,50,2013-11-18 22:53:00
5:53 PM,66.9,39.0,36,30.10,10.0,NE,4.6,-,N/A,,Clear,50,2013-11-18 23:53:00
6:53 PM,66.0,39.0,37,30.13,10.0,NNE,5.8,-,N/A,,Clear,30,2013-11-19 00:53:00
7:53 PM,64.9,37.9,37,30.14,10.0,NE,6.9,-,N/A,,Scattered Clouds,40,2013-11-19 01:53:00
8:53 PM,63.0,39.0,41,30.14,10.0,ENE,6.9,-,N/A,,Mostly Cloudy,60,2013-11-19 02:53:00
9:53 PM,61.0,39.9,46,30.15,10.0,NE,5.8,-,N/A,,Scattered Clouds,50,2013-11-19 03:53:00
10:53 PM,59.0,41.0,51,30.15,10.0,ENE,5.8,-,N/A,,Clear,70,2013-11-19 04:53:00
11:53 PM,57.9,41.0,53,30.14,10.0,ENE,5.8,-,N/A,,Clear,60,2013-11-19 05:53:00